www.pogodaiklimat.ru

Погода и климат >> Архив погоды >> Россия >> Якутия >> Верхоянск


АРХИВ ПОГОДЫ в Верхоянске

Время (UTC), дата Ветер
(напр.,м/с)
 
Видим.   Явления Облачность Т
(С)
Тd
(С)
f
(%)
Тe
(С)
Тes
(С)
Комфортность P
(гПа)
Po
(гПа)
Тmin
(С)
Tmax
(С)
R
(мм)
R24
(мм)
S
(см)
06 10.07 СВ 3 20 км дым 4/3 1500 м
[Cu hum Ac trans]
+27.8 +13.0 40 +29 +34 жарко 1002.8 987.4
09 10.07 С 2 20 км дым 3/1 1500 м
[Cu hum Ci fib]
+28.6 +12.2 36 +30 +32 жарко 1002.6 987.2 +29.2
12 10.07 штиль 0 20 км дым 8/3 1000 м
[Sc Ci fib]
+22.8 +13.7 56 +26 +26 жарко 1003.8 988.0
15 10.07 штиль 0 20 км дым 9/3 1000 м
[Sc Ac trans Ci fib]
+19.8 +12.5 63 +21 +21 комфорт 1005.2 989.3
18 10.07 ЮЗ 1 20 км дым 10/3 1000 м
[Sc Ac trans Ci fib]
+16.6 +13.4 81 +17 +18 тепло 1006.7 990.6
21 10.07 Ю 2 20 км дым 10/0
[Ac trans Ci fib]
+18.9 +13.6 71 +20 +22 тепло 1007.7 991.7 +15.9
00 11.07 Ю 2 20 км дым 6/0
[Cs]
+23.4 +15.2 60 +28 +34 душно 1007.9 992.2
03 11.07 ЮВ 2 50 км 10/1 1000 м
[Cu med, cong Cs]
+28.0 +15.9 48 +31 +39 душно 1007.0 991.5
06 11.07 З 3 20 км дым 8/3 1000 м
[Cu med, cong Cs]
+30.9 +14.6 37 +33 +37 душно 1006.3 990.9
09 11.07 СЗ 7-13
{14}
50 км 10/8 1320 м
[Cb cap Cs]
+22.3 +12.1 52 +25 +25 комфорт 1009.2 993.3 +31.2
12 11.07 СВ 1
{13}
50 км 4/0
[Ci fib]
+22.7 +12.5 53 +25 +26 комфорт 1010.6 994.7
15 11.07 СВ 1 50 км 4/0
[Ci fib]
+14.5 +11.3 81 +15 +15 по сезону 1012.0 995.7
18 11.07 ЮЗ 1 20 км дым ясно +11.0 +9.4 90 +11 +11 по сезону 1012.9 996.4
21 11.07 Ю 1 20 км дым 5/0
[Ci fib]
+15.8 +10.7 72 +17 +19 тепло 1013.2 997.0 +10.6
00 12.07 СВ 2 20 км дым 4/0
[Ci fib]
+22.1 +13.4 58 +25 +32 комфорт 1012.0 996.1
03 12.07 С 2 20 км дым 10/0
[Cs]
+27.4 +12.3 39 +29 +37 жарко 1010.4 994.8
06 12.07 ЮЗ 1 20 км дым 10/0
[Cs]
+29.4 +12.8 36 +31 +38 жарко 1008.3 992.8
09 12.07 В 1 20 км дым 10/0
[Ac trans Ci fib]
+29.4 +12.0 34 +30 +32 жарко 1006.7 991.3 +29.9
12 12.07 З 1 20 км дым 10/0
[Ac trans Cs]
+25.5 +11.7 42 +27 +27 жарко 1006.0 990.4
15 12.07 СВ 1 20 км дым 9/0
[Ci fib]
+18.0 +10.5 62 +19 +19 тепло 1006.4 990.4
18 12.07 штиль 0 20 км дым 8/1 1000 м
[Sc Ci fib]
+13.3 +9.8 79 +13 +13 тепло 1006.7 990.4
21 12.07 В 1 20 км дым 9/0
[Ac lent Ci fib]
+18.9 +12.3 66 +21 +23 комфорт 1006.7 990.7 +12.7
00 13.07 Ю 1 20 км дым 4/0
[Ci fib]
+23.9 +13.0 50 +26 +34 жарко 1006.5 990.8
03 13.07 ЮВ 2 10 км дым ясно +29.3 +13.4 38 +31 +42 жарко 1005.4 990.0
06 13.07 С 3 10 км дым 3/3 1500 м
[Cu med, cong]
+30.8 +13.5 35 +32 +37 жарко 1004.4 989.0
09 13.07 С 6-11
{11}
10 км дым 3/3 1500 м
[Cu med, cong]
+25.5 +12.8 45 +27 +28 жарко 1005.0 989.4 +32.0
12 13.07 С 3
{11}
4000 м мгла 8/3 1000 м
[Cu hum Ac trans Ci fib]
+20.8 +12.3 58 +23 +24 комфорт 1006.4 990.5
15 13.07 С 2 4000 м мгла 9/3 1000 м
[Cu hum Ac trans Ci fib]
+16.6 +11.9 74 +17 +17 тепло 1006.9 990.8
18 13.07 С 1 4000 м мгла 8/0
[Ac trans Ci fib]
+13.6 +11.1 85 +14 +14 тепло 1006.8 990.5
21 13.07 ЮЗ 1 4000 м мгла 8/0
[Ac trans Ci fib]
+14.8 +11.4 80 +15 +17 по сезону 1006.0 989.8 +11.9
00 14.07 Ю 2 4000 м мгла ясно +18.3 +12.2 68 +19 +27 тепло 1005.3 989.3
03 14.07 Ю 3 2000 м мгла 10/0
[Cc]
+22.7 +13.2 55 +26 +33 жарко 1004.6 988.8
06 14.07 С 3 2000 м мгла 10/0
[Cs]
+22.9 +12.6 52 +26 +31 жарко 1005.0 989.2
09 14.07 С 5
{11}
20 км дым 4/4 1000 м
[Cb cap]
+22.7 +11.2 48 +25 +26 комфорт 1006.9 991.1 +24.4
12 14.07 СВ 5
{11}
50 км 8/1 1000 м
[Cb cap Ac trans]
+18.0 +9.4 57 +18 +18 по сезону 1010.6 994.5
15 14.07 СЗ 2
{10}
10 км дым 1/0
[Ac trans]
+13.2 +6.8 65 +13 +13 по сезону 1012.7 996.3
18 14.07 СВ 2 10 км дым 1/0
[Ci fib]
+10.4 +6.8 78 +9 +9 по сезону 1013.5 996.9
21 14.07 СВ 2 20 км дым 1/0
[Ac trans]
+14.0 +8.2 68 +14 +16 по сезону 1013.5 997.2 +9.2
00 15.07 СВ 2 20 км дым 1/1 1000 м
[Cu med, cong]
+17.6 +8.5 55 +18 +25 тепло 1013.2 997.1 +13.9
03 15.07 штиль 0 20 км дым 8/5 1000 м
[Cu med, cong Ci fib]
+20.2 +8.6 47 +21 +27 комфорт 1011.7 995.7
06 15.07 Ю 2 20 км дым 3/3 1000 м
[Cu med, cong]
+22.5 +8.9 42 +24 +29 комфорт 1010.5 994.6
09 15.07 СЗ 1 20 км дым 3/3 1000 м
[Cu med, cong]
+23.4 +8.6 39 +25 +27 комфорт 1009.5 993.7 +23.7
12 15.07 С 4 20 км дым 4/3 1000 м
[Sc Ac trans]
+19.9 +6.8 43 +21 +21 комфорт 1010.6 994.6
15 15.07 СВ 5 20 км дым 9/6 720 м
[Cb cap Ac trans]
+14.9 +6.2 56 +14 +14 по сезону 1013.3 997.0
18 15.07 С 2 20 км дым 6/1 1000 м
[Cb cap Ac trans]
+11.1 +3.0 57 +10 +10 по сезону 1014.6 998.0
21 15.07 СВ 1 10 км дым 6/0
[Ac trans]
+11.3 +3.6 59 +11 +13 прохладно 1015.0 998.4 +9.9
00 16.07 ЮВ 2 20 км дым 5/0
[Ac trans Ci fib]
+14.6 +4.0 49 +14 +21 прохладно 1014.5 998.1
03 16.07 ЮВ 2 20 км дым 6/0
[Ac trans Ci fib]
+18.3 +5.3 42 +19 +28 по сезону 1012.7 996.6
06 16.07 В 2 10 км дым 6/0
[Ac trans Ci fib]
+20.3 +5.0 37 +22 +28 комфорт 1010.7 994.7
09 16.07 С 2 4000 м мгла 6/0
[Ac trans Ci fib]
+20.6 +4.6 35 +22 +24 комфорт 1009.4 993.4 +21.0
12 16.07 СВ 4 2000 м мгла 8/0
[Ac trans Ci]
+17.5 +5.6 45 +17 +17 по сезону 1009.6 993.5
15 16.07 С 3 2000 м мгла 8/0
[Ac trans Ci fib]
+12.5 +4.3 57 +11 +11 прохладно 1009.7 993.3
18 16.07 СВ 2 1000 м мгла 8/0
[Ac trans Ci fib]
+8.3 +4.0 74 +7 +7 прохладно 1009.6 992.9
21 16.07 штиль 0 1000 м мгла 10/0
[Ac und]
+10.3 +5.5 72 +10 +11 прохладно 1008.6 992.1 +6.9
00 17.07 СВ 3 500 м мгла 10/3 1000 м
[Cb cap Ac trans]
+13.4 +6.5 63 +12 +14 прохладно 1007.4 991.1 +10.1
03 17.07 СВ 4 500 м мгла 10/3 1000 м
[Cb cap Ac trans]
+13.8 +8.4 70 +12 +14 холодно 1005.9 989.6

 

Местоположение метеостанции Верхоянск (Якутия, Россия): широта 67.57 долгота 133.40 высота над уровнем моря 136 м.

В архиве по умолчанию представлена погода в Верхоянске за последнюю неделю. Архивные данные за месяц целиком и за предыдущие месяцы, начиная с января 2011 года, Вы можете получить, выбрав интересующий диапазон дат из раскрывающегося списка и нажав кнопку "Ввод!".


*Определитесь, кто Вы:
робот инопланетянин человек

Внимание! Время в таблицах - всемирное. Для получения местного времени необходимо прибавить поправку, которая равна 10 ч.

Смотрите также архив погоды в соседних городах и на ближайших метеорологических станциях:

Погода в Батагае (Якутия, Россия) (52 км)
Погода в Екюччю (Якутия, Россия) (118 км)
Погода в Батагай-Алыте (Якутия, Россия) (129 км)
Погода в Усть-Чарках (Якутия, Россия) (162 км)
Погода в Иэме (Якутия, Россия) (274 км)
Погода в Усть-Куйге (Якутия, Россия) (284 км)
Погода в Себян-Кюеле (Якутия, Россия) (294 км)
Погода в Депутатском (Якутия, Россия) (329 км)
Погода в Юбилейной (Якутия, Россия) (373 км)
Погода в Джарджане (Якутия, Россия) (409 км)

Пояснения к столбцам:

Ветер - указаны скорость ветра в м/с - средняя за 10 мин, порывы в срок и между сроками (в фигурных скобках) и направление, откуда дует ветер: С - северный, СВ - северо-восточный, В - восточный, ЮВ - юго-восточный, Ю - южный, ЮЗ - юго-западный, З - западный, СЗ - северо-западный.
Видимость - горизонтальная дальность видимости в метрах или километрах. При видимости от 1 до 10 км при отсутствии осадков обычно наблюдается дымка, при ухудшении видимости до 1 км и менее - туман. В сухую погоду видимость может ухудшаться дымом, пылью или мглою.
Явления - указаны атмосферные явления, наблюдавшиеся в срок или в последний час перед сроком; фигурными скобками обозначены явления, наблюдавшиеся между сроками (за 1-3 часа до срока); квадратными скобками обозначены град или гололедные отложения с указанием их диаметра в мм.
Облачность - указаны через наклонную черту общая и нижняя облачность в баллах и высота нижней границы облаков в метрах; квадратными скобками обозначены формы облаков: Ci - перистые, Cs - перисто-слоистые, Cc - перисто-кучевые, Ac - высококучевые, As - высокослоистые, Sc - слоисто-кучевые, Ns - слоисто-дождевые, Cu - кучевые, Cb - кучево-дождевые. Подробнее классификацию облаков см. в Атласе облаков (PDF).
T - Температура воздуха - температура, измеренная на высоте 2 м над землей.
Td - Температура точки росы - температура, при понижении до которой содержащийся в воздухе водяной пар достигнет насыщения.
f - Относительная влажность воздуха - влажноcть воздуха, измеренная на высоте 2 м над землей.
Te - Эффективная температура - температура, которую ощущает одетый по сезону человек в тени. Характеристика душности погоды. При расчете учитывается влияние влажности воздуха и скорости ветра на теплоощущения человека.
Tes - Эффективная температура на солнце - температура, которую ощущает человек, с поправкой на солнечный нагрев. Характеристика знойности погоды. Зависит от высоты солнца над горизонтом, облачности и скорости ветра. Ночью, в пасмурную погоду, а также при ветре 12 м/с и более поправка равна нулю.
P - Атмосферное давление - приведенное к уровню моря атмосферное давление.
Po - Атмосферное давление - измеренное на уровне метеостанции атмосферное давление.
Tmin - Минимальная температура - минимум температуры воздуха на высоте 2 м над землей.
Tmax - Максимальная температура - максимум температуры воздуха на высоте 2 м над землей.
R - Количество осадков - Количество выпавших осадков за период времени, мм. При наведении курсора мыши на число - период времени, за который выпало указанное количество осадков.
R24 - Количество осадков - Количество выпавших осадков за 24 часа, мм.
S - Снежный покров - Высота снежного покрова, см. При наведении курсора мыши на число - состояние снежного покрова и степень покрытия местности в баллах.